When you browse on this site, cookies collect data to enhance your experience and personalize the content and advertising you see.
Visit our Privacy Policy to learn more. By continuing to use the site, you agree to this use of cookies and data.
  • Em Portugal
  • Lista de países
  • Para 7 dias
  • Temperatura da água
  • Mapa do tempo
  • Widgets de tempo
  • user-avatar
    Iniciar Sessão

    Previsão horária em Cherskaya

    Hoje, 29 Fevereiro, Sábado

    Tempo Temperatura Precipitação Vento Pressão Humidade
    00:00 -7°C° 0 mm 3 m/s 747 mmHg 90%
    01:00 -7°C° 0 mm 3 m/s 747 mmHg 91%
    02:00 -6°C° 0 mm 2 m/s 748 mmHg 91%
    03:00 -6°C° 0 mm 2 m/s 748 mmHg 91%
    04:00 -7°C° 0 mm 2 m/s 748 mmHg 90%
    05:00 -7°C° 0 mm 2 m/s 748 mmHg 89%
    06:00 -7°C° 0 mm 2 m/s 748 mmHg 89%
    07:00 -7°C° 0 mm 2 m/s 749 mmHg 88%
    08:00 -7°C° 0 mm 2 m/s 749 mmHg 88%
    09:00 -5°C° 0 mm 2 m/s 749 mmHg 82%
    10:00 -5°C° 0 mm 3 m/s 749 mmHg 77%
    11:00 -2°C° 0 mm 3 m/s 749 mmHg 71%
    12:00 -2°C° 0 mm 3 m/s 749 mmHg 72%
    13:00 -1°C° 0 mm 3 m/s 749 mmHg 72%
    14:00 0°C° 0 mm 3 m/s 749 mmHg 73%
    15:00 0°C° 0 mm 3 m/s 749 mmHg 75%
    16:00 -1°C° 0 mm 3 m/s 749 mmHg 77%
    17:00 -1°C° 0 mm 3 m/s 749 mmHg 80%
    18:00 -1°C° 0 mm 3 m/s 749 mmHg 81%
    19:00 -1°C° 0 mm 3 m/s 749 mmHg 83%
    20:00 -2°C° 0 mm 3 m/s 748 mmHg 85%
    21:00 -2°C° 0 mm 3 m/s 748 mmHg 87%
    22:00 -2°C° 0 mm 3 m/s 748 mmHg 89%
    23:00 -2°C° 0 mm 3 m/s 748 mmHg 90%

    Amanhã, 1 Março, Domingo

    Tempo Temperatura Precipitação Vento Pressão Humidade
    00:00 -2°C° 0 mm 3 m/s 748 mmHg 90%
    01:00 -2°C° 0 mm 3 m/s 748 mmHg 90%
    02:00 -3°C° 0 mm 4 m/s 747 mmHg 90%
    03:00 -2°C° 0 mm 4 m/s 747 mmHg 89%
    04:00 -2°C° 0 mm 4 m/s 746 mmHg 88%
    05:00 -2°C° 0 mm 4 m/s 745 mmHg 87%
    06:00 -2°C° 0.2 mm 5 m/s 745 mmHg 89%
    07:00 -1°C° 0.2 mm 5 m/s 744 mmHg 92%
    08:00 -1°C° 0.2 mm 5 m/s 744 mmHg 94%
    09:00 -2°C° 0.1 mm 6 m/s 744 mmHg 94%
    10:00 -1°C° 0.1 mm 6 m/s 743 mmHg 94%
    11:00 -1°C° 0.1 mm 6 m/s 743 mmHg 93%
    12:00 0°C° 0.1 mm 5 m/s 743 mmHg 94%
    13:00 +1°C° 0.1 mm 5 m/s 743 mmHg 94%
    14:00 +1°C° 0.1 mm 4 m/s 744 mmHg 94%
    15:00 +1°C° 0 mm 4 m/s 744 mmHg 93%
    16:00 +1°C° 0 mm 4 m/s 744 mmHg 92%
    17:00 +2°C° 0 mm 3 m/s 744 mmHg 92%
    18:00 +2°C° 0 mm 3 m/s 744 mmHg 92%
    19:00 +1°C° 0 mm 4 m/s 745 mmHg 92%
    20:00 +1°C° 0 mm 4 m/s 745 mmHg 92%
    21:00 0°C° 0 mm 4 m/s 745 mmHg 92%
    22:00 +1°C° 0 mm 3 m/s 745 mmHg 93%
    23:00 +1°C° 0 mm 3 m/s 745 mmHg 94%

    Depois de amanhã, 2 Março, Segunda-feira

    Tempo Temperatura Precipitação Vento Pressão Humidade
    00:00 +1°C° 0.1 mm 3 m/s 745 mmHg 95%
    01:00 +1°C° 0.1 mm 3 m/s 745 mmHg 95%
    02:00 +1°C° 0.1 mm 3 m/s 745 mmHg 96%
    03:00 +1°C° 0 mm 3 m/s 745 mmHg 96%
    04:00 +1°C° 0 mm 3 m/s 745 mmHg 96%
    05:00 +1°C° 0 mm 3 m/s 745 mmHg 96%
    06:00 +1°C° 0.2 mm 3 m/s 745 mmHg 97%
    07:00 +1°C° 0.2 mm 3 m/s 745 mmHg 97%
    08:00 +2°C° 0.2 mm 2 m/s 745 mmHg 97%
    09:00 +2°C° 0 mm 3 m/s 746 mmHg 95%
    10:00 +3°C° 0 mm 3 m/s 746 mmHg 93%
    11:00 +3°C° 0 mm 3 m/s 746 mmHg 92%
    12:00 +3°C° 0 mm 3 m/s 746 mmHg 91%
    13:00 +4°C° 0 mm 3 m/s 746 mmHg 90%
    14:00 +5°C° 0 mm 2 m/s 747 mmHg 89%
    15:00 +4°C° 0 mm 2 m/s 747 mmHg 90%
    16:00 +4°C° 0 mm 2 m/s 747 mmHg 90%
    17:00 +4°C° 0 mm 2 m/s 746 mmHg 91%
    18:00 +3°C° 0 mm 2 m/s 747 mmHg 92%
    19:00 +3°C° 0 mm 2 m/s 747 mmHg 92%
    20:00 +3°C° 0 mm 2 m/s 747 mmHg 93%
    21:00 +3°C° 0 mm 2 m/s 746 mmHg 93%
    22:00 +2°C° 0 mm 3 m/s 746 mmHg 94%
    23:00 +2°C° 0 mm 3 m/s 746 mmHg 94%

    3 Março, Terça-feira

    Tempo Temperatura Precipitação Vento Pressão Humidade
    00:00 +3°C° 0.3 mm 3 m/s 745 mmHg 94%
    01:00 +3°C° 0.3 mm 3 m/s 745 mmHg 95%
    02:00 +3°C° 0.3 mm 4 m/s 745 mmHg 95%
    03:00 +3°C° 0.6 mm 3 m/s 745 mmHg 96%
    04:00 +3°C° 0.6 mm 3 m/s 744 mmHg 96%
    05:00 +3°C° 0.6 mm 3 m/s 744 mmHg 96%
    06:00 +3°C° 0.2 mm 3 m/s 744 mmHg 96%
    07:00 +3°C° 0.2 mm 3 m/s 745 mmHg 96%
    08:00 +4°C° 0.2 mm 2 m/s 745 mmHg 96%
    09:00 +4°C° 0 mm 2 m/s 745 mmHg 96%
    10:00 +4°C° 0 mm 2 m/s 746 mmHg 95%
    11:00 +4°C° 0 mm 2 m/s 746 mmHg 95%
    12:00 +5°C° 0 mm 2 m/s 747 mmHg 94%
    13:00 +6°C° 0 mm 2 m/s 748 mmHg 92%
    14:00 +6°C° 0 mm 2 m/s 748 mmHg 91%
    15:00 +6°C° 0 mm 2 m/s 748 mmHg 91%
    16:00 +7°C° 0 mm 1 m/s 749 mmHg 91%
    17:00 +6°C° 0 mm 1 m/s 749 mmHg 91%
    18:00 +6°C° 0 mm 1 m/s 749 mmHg 92%
    19:00 +6°C° 0 mm 1 m/s 750 mmHg 92%
    20:00 +4°C° 0 mm 2 m/s 750 mmHg 92%
    21:00 +4°C° 0 mm 2 m/s 750 mmHg 93%
    22:00 +4°C° 0 mm 2 m/s 750 mmHg 93%
    23:00 +4°C° 0 mm 2 m/s 751 mmHg 93%

    4 Março, Quarta-feira

    Tempo Temperatura Precipitação Vento Pressão Humidade
    00:00 +4°C° 0 mm 2 m/s 751 mmHg 92%
    01:00 +3°C° 0 mm 3 m/s 750 mmHg 91%
    02:00 +3°C° 0 mm 3 m/s 750 mmHg 90%
    03:00 +3°C° 0 mm 3 m/s 750 mmHg 90%
    04:00 +3°C° 0 mm 3 m/s 750 mmHg 90%
    05:00 +3°C° 0 mm 3 m/s 750 mmHg 91%
    06:00 +3°C° 0 mm 4 m/s 749 mmHg 91%
    07:00 +3°C° 0 mm 4 m/s 749 mmHg 91%
    08:00 +3°C° 0 mm 4 m/s 749 mmHg 91%
    09:00 +3°C° 0 mm 4 m/s 749 mmHg 91%
    10:00 +4°C° 0 mm 4 m/s 749 mmHg 90%
    11:00 +4°C° 0 mm 4 m/s 749 mmHg 90%
    12:00 +5°C° 0 mm 4 m/s 748 mmHg 90%
    13:00 +5°C° 0 mm 4 m/s 748 mmHg 90%
    14:00 +7°C° 0 mm 3 m/s 748 mmHg 90%
    15:00 +5°C° 0 mm 3 m/s 748 mmHg 90%
    16:00 +5°C° 0 mm 4 m/s 748 mmHg 91%
    17:00 +5°C° 0 mm 4 m/s 747 mmHg 92%
    18:00 +5°C° 0 mm 4 m/s 747 mmHg 93%
    19:00 +5°C° 0 mm 4 m/s 747 mmHg 93%
    20:00 +5°C° 0 mm 4 m/s 747 mmHg 94%
    21:00 +5°C° 0.4 mm 4 m/s 746 mmHg 94%
    22:00 +5°C° 0.4 mm 4 m/s 746 mmHg 95%
    23:00 +5°C° 0.4 mm 4 m/s 746 mmHg 96%

    5 Março, Quinta-feira

    Tempo Temperatura Precipitação Vento Pressão Humidade
    00:00 +5°C° 0.2 mm 4 m/s 745 mmHg 95%
    01:00 +6°C° 0.2 mm 4 m/s 745 mmHg 94%
    02:00 +6°C° 0.2 mm 4 m/s 744 mmHg 93%
    03:00 +6°C° 0.1 mm 4 m/s 743 mmHg 92%
    04:00 +6°C° 0.1 mm 4 m/s 743 mmHg 90%
    05:00 +6°C° 0.1 mm 5 m/s 742 mmHg 89%
    06:00 +6°C° 0.2 mm 5 m/s 742 mmHg 87%
    07:00 +6°C° 0.2 mm 5 m/s 741 mmHg 85%
    08:00 +7°C° 0.2 mm 5 m/s 741 mmHg 84%
    09:00 +7°C° 0 mm 5 m/s 741 mmHg 81%
    10:00 +8°C° 0 mm 5 m/s 741 mmHg 78%
    11:00 +8°C° 0 mm 5 m/s 741 mmHg 76%
    12:00 +8°C° 0 mm 5 m/s 740 mmHg 73%
    13:00 +7°C° 0 mm 6 m/s 740 mmHg 71%
    14:00 +7°C° 0 mm 6 m/s 740 mmHg 69%
    15:00 +6°C° 0 mm 5 m/s 739 mmHg 70%
    16:00 +6°C° 0 mm 5 m/s 739 mmHg 70%
    17:00 +6°C° 0 mm 5 m/s 738 mmHg 71%
    18:00 +6°C° 0.1 mm 5 m/s 739 mmHg 75%
    19:00 +6°C° 0.1 mm 5 m/s 739 mmHg 79%
    20:00 +6°C° 0.1 mm 5 m/s 739 mmHg 82%
    21:00 +5°C° 0.4 mm 5 m/s 739 mmHg 85%
    22:00 +5°C° 0.4 mm 5 m/s 739 mmHg 88%
    23:00 +3°C° 0.4 mm 6 m/s 740 mmHg 91%
    Mostrar mais